Location: Croydon
(51.3762°N, 0.0982°W)
Time: 07:55:34
(UTC+00:00)

KKS-1 - Pass Details

Date: 22 October 2019
Orbit: 636 x 651 km, 98.3° (Epoch: 11 November)

Event Time Altitude Azimuth Distance (km) Brightness Sun altitude
Rises 06:01:33 0° 120° (ESE) 2,960 ? -15.3°
Reaches altitude 10° 06:04:15 10° 104° (ESE) 2,052 ? -14.9°
Maximum altitude 06:07:26 20° 58° (ENE) 1,521 ? -14.4°
Drops below altitude 10° 06:10:36 10° 13° (NNE) 2,056 ? -13.9°
Sets 06:13:19 0° 356° (N) 2,968 ? -13.5°
